Regional Weather Roundup
Issued by NWS San Angelo, TX

Current Version | Previous Version | Text Only | Print | Product List | Glossary On
Versions: 1 2 3 4 5 6 7 8 9 10 11 12 13 14 15 16 17 18 19 20 21 22 23 24 25 26 27 28 29 30 31 32 33 34 35 36 37 38 39 40 41 42 43 44 45 46 47 48 49 50
000
ASUS44 KSJT 271710
RWRSJT
WEST CENTRAL TEXAS REGIONAL WEATHER ROUNDUP
NATIONAL WEATHER SERVICE SAN ANGELO TX
1200 PM CDT WED AUG 27 2014

NOTE: "FAIR" INDICATES FEW OR NO CLOUDS BELOW 12,000 FEET WITH NO
SIGNIFICANT WEATHER AND/OR OBSTRUCTIONS TO VISIBILITY.

TXZ049-054-064>066-071>073-076>078-098-099-113-114-127-128-139-140-
154-155-168>170-271800
...LOCATIONS ACROSS WEST CENTRAL TEXAS...

CITY           SKY/WX    TMP DP  RH WIND       PRES   REMARKS
SAN ANGELO     SUNNY     90  67  46 S7        30.09F
ABILENE        PTSUNNY   93  66  40 E9        30.10F
DYESS AFB      MOSUNNY   89  68  49 SE6       30.09F
JUNCTION       SUNNY     87  68  52 NE5       30.10S
SWEETWATER     SUNNY     89  62  41 SE3       30.15F
BROWNWOOD      PTSUNNY   90  66  45 E10       30.09S
COLEMAN        SUNNY     88  65  46 CALM      30.10F
SONORA         SUNNY     86  66  51 VRB3      30.15F
OZONA          FAIR      88  63  42 S7        30.14S
BRADY          MOSUNNY   86  66  51 VRB3      30.10F
$$

TEXAS PANHANDLE/OKLAHOMA PANHANDLE

CITY           SKY/WX    TMP DP  RH WIND       PRES   REMARKS
AMARILLO       PTSUNNY   78  65  63 S10       30.18S
BORGER         PTSUNNY   83  65  54 SE12      30.15S
CANADIAN       PTSUNNY   79  71  77 SE13      30.12F
DALHART        MOSUNNY   76  65  68 S14       30.19S
DUMAS          PTSUNNY   79  65  63 S14       30.17S
GUYMON         NOT AVBL
HEREFORD       CLOUDY    80  65  60 S6        30.19F
PAMPA          PTSUNNY   81  63  53 S14       30.17S
PERRYTON       PTSUNNY   76  69  78 SE16      30.14F
$$

SOUTHERN PANHANDLE/SOUTH PLAINS/ROLLING PLAINS

CITY           SKY/WX    TMP DP  RH WIND       PRES   REMARKS
LUBBOCK        MOSUNNY   88  59  37 SW10      30.16S
SNYDER         SUNNY     87  65  46 SW8       30.12F
CHILDRESS      MOSUNNY   92  66  42 S12       30.10F
SEMINOLE       SUNNY     88  54  31 CALM      30.18F
$$

PERMIAN BASIN

CITY           SKY/WX    TMP DP  RH WIND       PRES   REMARKS
MIDLAND        SUNNY     88  62  41 SW8       30.13S
ODESSA         SUNNY     87  62  43 VRB5      30.15S
WINK           MOSUNNY   90  56  31 VRB5      30.12S
$$

FAR WEST/SOUTHWEST MOUNTAINS/TRANS PECOS

CITY           SKY/WX    TMP DP  RH WIND       PRES   REMARKS
ALPINE         SUNNY     84  49  29 CALM      30.29R
DRYDEN           N/A     93  63  36 VRB5      30.09S
EL PASO        MOSUNNY   78  64  61 N5        30.21R
FORT STOCKTON  SUNNY     87  58  37 NW7       30.15S
GUADALUPE PASS CLOUDY    75  56  51 MISG      30.32S
MARFA          SUNNY     81  55  41 S3        30.29R
PECOS          SUNNY     88  59  37 NW7       30.12S
$$

DALLAS/FORT WORTH METROPLEX

CITY           SKY/WX    TMP DP  RH WIND       PRES   REMARKS
DFW AIRPORT    MOSUNNY   90  70  51 E10       30.07S
FTW MEACHAM    MOSUNNY   90  68  48 SE9       30.07S
DAL-EXECUTIVE  SUNNY     92  65  40 VRB6      30.07F
GRAND PRAIRIE  SUNNY     88  66  48 E7        30.09S
ADDISON        MOSUNNY   88  66  48 SE5       30.08F
MESQUITE       PTSUNNY   90  64  43 SE5       30.08S
LANCASTER      SUNNY     90  64  41 CALM      30.08S
$$

NORTH CENTRAL TEXAS

CITY           SKY/WX    TMP DP  RH WIND       PRES   REMARKS
SHRMAN/DENISON MOSUNNY   89  68  48 E5        30.09F
GAINESVILLE    SUNNY     87  69  55 E5        30.11S
BRIDGEPORT     MOSUNNY   89  64  42 CALM      30.09F
DENTON         MOSUNNY   87  69  54 SE3       30.07F
WAXAHACHIE     PTSUNNY   91  63  39 E8        30.09F
GRANBURY       SUNNY     92  65  40 E7        30.08F
$$

WESTERN NORTH TEXAS

CITY           SKY/WX    TMP DP  RH WIND       PRES   REMARKS
WICHITA FALLS  MOSUNNY   90  67  46 S9        30.07F
VERNON         SUNNY     92  63  37 CALM      30.08F
BRECKENRIDGE   PTSUNNY   93  63  35 E8        30.07F HAZE
COMANCHE         N/A     91  65  41 CALM      30.09S
$$

CENTRAL AND SOUTH CENTRAL TEXAS

CITY           SKY/WX    TMP DP  RH WIND       PRES   REMARKS
AUSTIN/BERGSTM PTSUNNY   91  70  49 NE10      30.04S
WACO           MOSUNNY   90  67  46 VRB7      30.06S
HILLSBORO      SUNNY     89  65  44 N6        30.08S
TEMPLE         CLOUDY    93  66  40 E7        30.05F
KILLEEN-GRAY   PTSUNNY   90  70  51 NE7       30.07F
FORT HOOD      PTSUNNY   88  68  51 E3        30.06F
GEORGETOWN     SUNNY     88  70  55 NE6       30.06F
LAGO VISTA     PTSUNNY   86  68  53 E5        30.09S
SAN MARCOS     PTSUNNY   91  66  43 NE7       30.05F
NEW BRAUNFELS  MOSUNNY   91  67  44 E12G17    30.03S
RANDOLPH AFB   MOSUNNY   90  67  45 E6        30.04F
SAN ANTONIO    MOSUNNY   89  68  49 VRB3      30.05S
STINSON        MOSUNNY   91  68  46 NE10      30.02S
PLEASANTON     NOT AVBL
LA GRANGE      MOSUNNY   92  68  44 E10       30.01S
GIDDINGS       MOSUNNY   90  64  41 NE12G17   30.07F
$$

EAST TEXAS

CITY           SKY/WX    TMP DP  RH WIND       PRES   REMARKS
PARIS          PTSUNNY   90  66  45 SE7       30.09F
CLARKSVILLE    SUNNY     90  63  40 SE7       30.09S
TYLER          SUNNY     89  62  40 VRB3      30.07F
LONGVIEW       PTSUNNY   90  59  35 E9        30.06F
PALESTINE      SUNNY     89  62  40 E10       30.08S
NACOGDOCHES    PTSUNNY   88  64  45 SE9       30.06F
$$

TEXAS HILL COUNTRY AND EDWARDS PLATEAU

CITY           SKY/WX    TMP DP  RH WIND       PRES   REMARKS
LLANO          MOSUNNY   90  66  45 E12       30.10S
HORSESHOE BAY  FAIR      86  66  50 CALM      30.08S
KERRVILLE      MOSUNNY   85  68  56 SE5       30.10S
FREDERICKSBRG  MOSUNNY   87  64  44 NE6       30.09F
ROCKSPRINGS    MOSUNNY   84  66  54 E5        30.15S
HONDO            N/A    N/A N/A N/A MISG      30.07R
UVALDE         SUNNY     88  66  48 E6        30.05F
DEL RIO        SUNNY     90  68  48 S6        30.03S
$$

SOUTHEAST TEXAS

CITY           SKY/WX    TMP DP  RH WIND       PRES   REMARKS
COLLEGE STN    MOSUNNY   91  64  40 E9G16     30.03F
CALDWELL       HAZE      88  61  40 N7        30.07F VSB 1/2
CROCKETT       MOSUNNY   90  70  51 NE7       30.08F
BRENHAM        SUNNY     90  67  46 N7        30.03F
HUNTSVILLE     PTSUNNY   88  65  46 VRB5      30.03F
CONROE         MOSUNNY   89  65  44 E8        30.03F
HOUSTON BUSH   MOSUNNY   91  70  49 NE12      30.01S
HOUSTON HOBBY  MOSUNNY   89  72  56 E10G18    29.99F
PERLAND        MOSUNNY   88  72  58 E13G28    30.01S
WHARTON        SUNNY     90  68  48 NE10G18   29.99F
$$

THE UPPER TEXAS COAST

CITY           SKY/WX    TMP DP  RH WIND       PRES   REMARKS
ORANGE         PTSUNNY   86  72  62 NE9       30.03S
PORT ARTHUR    PTSUNNY   89  74  60 E12G22    30.00F
GALVESTON      LGT RAIN  82  78  88 NE9       29.99S
ANGLETON       CLOUDY    82  77  84 E6        29.99R
BAY CITY       PTSUNNY   91  73  55 E12       29.98S
$$

TEXAS COASTAL BEND, RIO GRANDE PLAINS DEEP SOUTH TEXAS

CITY           SKY/WX    TMP DP  RH WIND       PRES   REMARKS
VICTORIA       MOSUNNY   94  71  47 NE12      29.99S
BEEVILLE       FAIR      93  67  41 NE13      30.00S
ROCKPORT       MOSUNNY   91  72  53 NE14G23   29.97S
PORT ARANSAS   LGT RAIN  85  76  75 NE13G20   29.97R
PORT LAVACA    SUNNY     91  73  56 NE13G20   29.98S
CORPUS CHRISTI PTSUNNY   93  71  48 NE14G21   29.97S
KINGSVILLE NAS PTSUNNY   92  73  53 N10       29.98S
COTULLA        SUNNY     92  66  42 NE13      30.02R
LAREDO         SUNNY     92  69  46 E5        30.03S
BROWNSVILLE    MOSUNNY   95  73  48 N9        29.95S
PORT ISABEL    MOSUNNY   93  72  50 N15       29.95S
HEBBRONVILLE   SUNNY     90  67  46 E3        30.01F
MCALLEN        MOSUNNY   92  70  48 NE5       29.97S
WESLACO        PTSUNNY   91  69  49 N6        29.96S
FALFURRIAS     MOSUNNY   92  66  42 NE10      29.97F
EDINBURG       MOSUNNY   94  67  42 N13G18    29.97S
$$


USA.gov is the U.S. government's official web portal to all federal, state and local government web resources and services.